Hourly Weather Roundup
Issued by NWS Central Illinois

Home | Current Version | Previous Version | Text Only | Print | Product List | Glossary On
Versions: 1 2 3 4 5 6 7 8 9 10 11 12 13 14 15 16 17 18 19 20 21 22 23 24 25 26 27 28 29 30 31 32 33 34 35 36 37 38 39 40 41 42 43 44 45 46 47 48 49 50
000
NZUS43 KILX 230710
HWRILX

AREA WEATHER ROUNDUP
NATIONAL WEATHER SERVICE, LINCOLN IL
200 AM CDT SAT MAY 23 2015


CITY           SKY/WX    TMP DP  RH WIND       PRES   REMARKS
BLOOMINGTON    CLOUDY    61  40  45 SE9       30.27S
CHAMPAIGN      CLOUDY    61  43  51 E8        30.26S
DANVILLE       CLOUDY    59  39  47 E8        30.25R
DECATUR        CLOUDY    64  51  62 S8        30.24F
EFFINGHAM      CLOUDY    58  51  77 CALM      30.27F
FLORA          CLOUDY    60  54  81 CALM      30.27S
GALESBURG      MOCLDY    59  51  75 CALM      30.23F
JACKSONVILLE   CLOUDY    62  56  80 CALM      30.24R
LACON          CLOUDY    61  37  41 E8        30.25S
LAWRENCEVILLE  CLOUDY    61  54  77 CALM      30.28S
LITCHFIELD     CLOUDY    59  55  86 CALM      30.25R
$$


CITY           SKY/WX    TMP DP  RH WIND       PRES   REMARKS
LINCOLN        MOCLDY    62  52  70 NE5       30.22F
MACOMB         PTCLDY    58  55  87 CALM      30.25S
MATTOON        CLOUDY    58  52  80 SE5       30.24F
MT CARMEL AP   CLOUDY    61  54  77 CALM      30.27S
OLNEY-NOBLE AP CLOUDY    57  54  88 CALM      30.27F
PARIS          CLOUDY    61  52  71 S3        30.28R
PEORIA         MOCLDY    61  47  59 NE6       30.25S
PONTIAC        MOCLDY    57  41  55 E7        30.27F
RANTOUL        CLOUDY    62  41  45 E7        30.26S
ROBINSON       CLOUDY    57  54  88 CALM      30.29R
SPRINGFIELD    CLOUDY    61  54  77 N5        30.24S
TAYLORVILLE    CLOUDY    59  54  82 S3        30.25R
$$

...REGIONAL REPORTS...


CITY           SKY/WX    TMP DP  RH WIND       PRES   REMARKS
CHICAGO O`HARE MOCLDY    50  32  50 SE5       30.28F
KANKAKEE       MOCLDY    55  39  55 CALM      30.29S
MOLINE         MOCLDY    57  48  72 E7        30.23S
MOUNT VERNON   CLOUDY    55  52  88 CALM      30.27R
PITTSFIELD     CLOUDY    59  51  75 CALM      30.26R
QUINCY         CLOUDY    57  53  86 CALM      30.24R
ROCKFORD       CLEAR     52  33  48 CALM      30.30S
$$


CITY           SKY/WX    TMP DP  RH WIND       PRES   REMARKS
BURLINGTON     CLOUDY    58  55  90 CALM      30.22S
CEDAR RAPIDS   CLOUDY    58  50  75 CALM      30.22R
DES MOINES     MOCLDY    60  48  64 CALM      30.22S
KIRKSVILLE     PTCLDY    52  52 100 SE3       30.25R
OTTUMWA        PTCLDY    51  49  92 CALM      30.23S
ST LOUIS       CLOUDY    64  52  64 E3        30.25S
$$


CITY           SKY/WX    TMP DP  RH WIND       PRES   REMARKS
TERRE HAUTE    CLOUDY    60  54  80 SW3       30.27S
EVANSVILLE     MOCLDY    59  54  83 CALM      30.27F
INDIANAPOLIS   MOCLDY    58  43  57 NE9       30.27S
LAFAYETTE      PTCLDY    54  39  57 E8        30.29S
MADISON        MOCLDY    54  31  41 S12       30.27S
MILWAUKEE      MOCLDY    50  30  46 S7        30.28S
$$




USA.gov is the U.S. government's official web portal to all federal, state and local government web resources and services.